User: anonymous   Login
Location: Caltech
(34.1382°N, 118.1253°W)
Time: 21:52:03
(UTC-07:00)
Language:

Oscar 11 - Orbit

View from above orbital plane
View from above orbital plane
View from above satellite
View from above satellite

Ground track
Ground track

The orbit data is extracted from the following two-line orbital elements,

1 14781U 84021B   18116.65405187  .00000064  00000-0  14013-4 0  9992
2 14781  97.6549 155.0521 0007052 247.9889 112.0577 14.82998028836802
Epoch (UTC): 26 April 2018 15:41:50
Eccentricity: 0.0007052
inclination: 97.6549°
perigee height: 615 km
apogee height: 625 km
right ascension of ascending node: 155.0521°
argument of perigee: 247.9889°
revolutions per day: 14.82998028
mean anomaly at epoch: 112.0577°
orbit number at epoch: 83680

The dashed part of the orbit path shows where the satellite is in the earth's shadow,  

DLR